Location: Newark
(13.0000°N, 105.0000°E)
Time: 08:26:48
(UTC+00:00)

OTV 5 (USA 277) - Visible Passes

Search period start: 23 October 2019 00:00
Search period end: 02 November 2019 00:00
Orbit: 310 x 324 km, 54.5° (Epoch: 17 October)

Date Brightness Start Highest point End Pass type
(mag) Time Alt. Az. Time Alt. Az. Time Alt. Az.
23 Oct ? 11:17:24 10° S 11:19:34 22° ESE 11:20:21 19° E visible
23 Oct ? 22:31:24 10° NW 22:34:04 53° WSW 22:36:41 10° SSE visible
24 Oct ? 11:31:21 10° SW 11:34:00 62° NW 11:35:31 22° NNE visible
24 Oct ? 21:14:18 13° NE 21:14:21 13° NE 21:15:38 10° E visible
25 Oct ? 11:47:09 10° W 11:48:33 13° NW 11:49:57 10° NNW visible
25 Oct ? 21:29:30 43° ESE 21:29:30 43° ESE 21:31:34 10° SE visible
26 Oct ? 21:44:41 16° SSW 21:44:41 16° SSW 21:45:36 10° S visible
